This demonstration page uses our WeatherBlox Daily Observations layout. Learn more.

Hourly Observations for June 26, 2019

Temp ( °F °C ) Dew Point ( °F °C ) Humidity (%) Winds ( mph kmh ) Pressure ( in mb ) Visibility ( mi km ) Precip ( " mm )
12:15 am 00:15 Clear 64 17.5 59 15.1 86 86 ESE 7 11 29.91 1013 10 16.09344 0 0
12:35 am 00:35 Clear 64 17.8 59 15.2 85 85 SE 3 6 29.91 1013 10 16.09344 0 0
12:55 am 00:55 Clear 64 17.8 60 15.3 85 85 SE 6 9 29.91 1013 10 16.09344 0 0
1:15 am 01:15 Clear 64 17.9 60 15.5 86 86 SE 7 11 29.91 1013 10 16.09344 0 0
1:35 am 01:35 Clear 64 17.7 60 15.7 88 88 SE 8 13 29.91 1013 10 16.09344 0 0
1:55 am 01:55 Clear 64 17.7 60 15.8 89 89 SE 3 6 29.91 1013 10 16.09344 0 0
2:15 am 02:15 Clear 64 17.6 60 15.7 89 89 SE 7 11 29.91 1013 10 16.09344 0 0
2:35 am 02:35 Clear 64 17.7 60 15.8 89 89 SE 8 13 29.91 1013 10 16.09344 0 0
2:55 am 02:55 Clear 64 17.5 61 15.9 90 90 SSE 7 11 29.91 1013 10 16.09344 0 0
3:15 am 03:15 Clear 62 16.8 61 15.9 94 94 S 8 13 29.88 1012 10 16.09344 0 0
3:35 am 03:35 Clear 65 18.1 62 16.5 90 90 SSE 9 15 29.91 1013 10 16.09344 0 0
3:55 am 03:55 Clear 66 18.9 63 17 89 89 SSE 9 15 29.91 1013 10 16.09344 0 0
4:15 am 04:15 Clear 66 19.1 64 17.5 91 91 S 13 20 29.91 1013 10 16.09344 0 0
4:35 am 04:35 Clear with Light Rain 67 19.2 64 17.6 91 91 ESE 8 13 29.88 1012 10 16.09344 0 0
4:55 am 04:55 Mostly Cloudy 66 18.8 64 17.5 92 92 E 3 6 29.88 1012 10 16.09344 0 0
5:15 am 05:15 Mostly Cloudy 66 19.1 64 17.8 92 92 Calm 29.91 1013 10 16.09344 0 0
5:35 am 05:35 Partly Cloudy 64 17.6 63 17.2 98 98 NE 3 6 29.91 1013 10 16.09344 0 0
5:55 am 05:55 Mostly Cloudy 65 18.3 64 17.6 96 96 SE 3 6 29.91 1013 10 16.09344 0 0
6:15 am 06:15 Partly Cloudy 66 18.8 64 18 95 95 ESE 7 11 29.91 1013 10 16.09344 0 0
6:35 am 06:35 Partly Cloudy 65 18.5 64 18 97 97 SE 9 15 29.94 1014 7 11.265408 0 0
6:55 am 06:55 Sunny 65 18.5 64 18 97 97 ESE 10 17 29.94 1014 10 16.09344 0 0
7:15 am 07:15 Sunny 65 18.5 64 18 97 97 SE 13 20 29.94 1014 10 16.09344 0 0
7:35 am 07:35 Mostly Cloudy 65 18.2 64 17.7 97 97 SE 14 22 29.94 1014 10 16.09344 0 0
7:55 am 07:55 Cloudy 65 18.3 64 17.5 95 95 ESE 13 20 29.97 1015 10 16.09344 0 0
8:15 am 08:15 Cloudy 65 18.5 63 17.1 92 92 SE 18 30 29.97 1015 10 16.09344 0 0
8:35 am 08:35 Mostly Cloudy 65 18.6 62 16.6 88 88 SE 18 30 29.97 1015 10 16.09344 0 0
8:55 am 08:55 Mostly Cloudy 67 19.6 63 17.2 86 86 SE 18 30 29.97 1015 10 16.09344 0 0
9:15 am 09:15 Partly Cloudy 68 20 63 17.1 83 83 SE 21 33 29.97 1015 10 16.09344 0 0
9:35 am 09:35 Partly Cloudy 70 20.9 63 17 78 78 SE 24 39 29.94 1014 10 16.09344 0 0
9:55 am 09:55 Sunny 70 21.2 63 17.1 78 78 SE 22 35 29.94 1014 10 16.09344 0 0
10:15 am 10:15 Sunny 72 22.2 63 17.4 74 74 SSE 22 35 29.94 1014 10 16.09344 0 0
10:35 am 10:35 Sunny 73 22.9 63 17.2 70 70 SE 23 37 29.94 1014 10 16.09344 0 0
10:55 am 10:55 Sunny 75 23.7 63 17.3 67 67 SE 23 37 29.91 1013 10 16.09344 0 0
11:15 am 11:15 Sunny 75 24 63 17 65 65 SE 22 35 29.91 1013 10 16.09344 0 0
11:35 am 11:35 Sunny 76 24.5 64 17.5 65 65 SE 22 35 29.91 1013 10 16.09344 0 0
11:55 am 11:55 Sunny 77 24.8 64 17.5 64 64 SSE 21 33 29.91 1013 10 16.09344 0 0
12:15 pm 12:15 Sunny 77 25.2 64 17.5 62 62 SSE 21 33 29.91 1013 10 16.09344 0 0
12:35 pm 12:35 Sunny 78 25.4 64 17.6 62 62 SSE 22 35 29.91 1013 10 16.09344 0 0
12:55 pm 12:55 Sunny 78 25.7 64 17.6 61 61 SE 20 31 29.91 1013 10 16.09344 0 0
1:15 pm 13:15 Sunny 79 26 64 17.7 60 60 SE 24 39 29.88 1012 10 16.09344 0 0
1:35 pm 13:35 Sunny 79 26.3 65 18.2 61 61 SSE 20 31 29.88 1012 10 16.09344 0 0
1:55 pm 13:55 Sunny 80 26.6 64 17.8 59 59 SSE 22 35 29.88 1012 10 16.09344 0 0
2:15 pm 14:15 Sunny 80 26.8 65 18.4 60 60 SSE 18 30 29.88 1012 10 16.09344 0 0
2:35 pm 14:35 Sunny 81 27.1 65 18.6 60 60 SSE 18 30 29.85 1011 10 16.09344 0 0
2:55 pm 14:55 Sunny 79 25.9 65 18.4 63 63 SSE 18 30 29.88 1012 10 16.09344 0 0
3:15 pm 15:15 Sunny 81 27.4 67 19.3 61 61 SSE 18 30 29.85 1011 10 16.09344 0 0
3:35 pm 15:35 Sunny 81 27.4 67 19.6 62 62 SSE 17 28 29.85 1011 10 16.09344 0 0
3:55 pm 15:55 Sunny 81 27 67 19.6 64 64 SSE 16 26 29.85 1011 10 16.09344 0 0
4:15 pm 16:15 Sunny 80 26.5 67 19.6 66 66 S 15 24 29.88 1012 10 16.09344 0 0
4:35 pm 16:35 Sunny 82 27.8 68 20.2 63 63 S 16 26 29.83 1010 10 16.09344 0 0
4:55 pm 16:55 Sunny 83 28.1 68 20.2 62 62 S 14 22 29.83 1010 10 16.09344 0 0
5:15 pm 17:15 Sunny 82 27.9 67 19.7 61 61 SSE 17 28 29.83 1010 10 16.09344 0 0
5:35 pm 17:35 Sunny 82 27.6 68 20.2 64 64 S 14 22 29.83 1010 10 16.09344 0 0
5:55 pm 17:55 Sunny 82 27.6 69 20.5 65 65 SSE 13 20 29.83 1010 10 16.09344 0 0
6:15 pm 18:15 Sunny 82 27.7 69 20.6 65 65 SE 13 20 29.8 1009 10 16.09344 0 0
6:35 pm 18:35 Sunny 82 27.8 69 20.7 65 65 SE 12 19 29.8 1009 10 16.09344 0 0
6:55 pm 18:55 Sunny 82 27.6 70 20.9 67 67 SE 13 20 29.8 1009 10 16.09344 0 0
7:15 pm 19:15 Sunny 82 27.6 70 20.9 67 67 SE 12 19 29.8 1009 10 16.09344 0 0
7:35 pm 19:35 Sunny 82 27.5 70 21 68 68 SE 13 20 29.8 1009 10 16.09344 0 0
7:55 pm 19:55 Sunny 81 27.2 70 21.1 69 69 SE 10 17 29.8 1009 10 16.09344 0 0
8:15 pm 20:15 Sunny 80 26.7 70 21 71 71 SE 10 17 29.8 1009 10 16.09344 0 0
8:35 pm 20:35 Sunny 79 26.1 70 21.2 74 74 ESE 9 15 29.83 1010 10 16.09344 0 0
8:55 pm 20:55 Sunny 77 25.1 70 21.1 79 79 SE 8 13 29.83 1010 10 16.09344 0 0
9:15 pm 21:15 Clear 76 24.7 70 21.1 80 80 SE 7 11 29.83 1010 10 16.09344 0 0
9:35 pm 21:35 Clear 76 24.3 70 21.1 82 82 ESE 9 15 29.85 1011 10 16.09344 0 0
9:55 pm 21:55 Clear 74 23.6 70 21.1 86 86 ESE 8 13 29.85 1011 10 16.09344 0 0
10:15 pm 22:15 Clear 74 23.1 70 21 88 88 ESE 8 13 29.85 1011 10 16.09344 0 0
10:35 pm 22:35 Clear 74 23.5 70 21 86 86 ESE 9 15 29.85 1011 10 16.09344 0 0
10:55 pm 22:55 Clear 74 23.3 70 21 87 87 ESE 9 15 29.85 1011 10 16.09344 0 0
11:15 pm 23:15 Clear 73 23 69 20.8 87 87 ESE 9 15 29.91 1013 10 16.09344 0 0
11:35 pm 23:35 Clear 73 22.7 69 20.7 89 89 ESE 9 15 29.88 1012 7 11.265408 0 0
11:55 pm 23:55 Clear 73 22.9 69 20.4 86 86 SE 9 15 29.88 1012 10 16.09344 0 0

Powered by AerisWeather